| time (UTC) | temp F | wind direction | speed MPH | gust MPH | rain 1hr in | rain 24hr in | rain mn in | humidity % | barometer mb |
| 20260504081524 | 31 | 344 | 0.0 | 0.0 | 0.00 | 0.00 | 0.00 | 87 | 1012.0 |
| 20260504050007 | 34 | 344 | 0.0 | 0.0 | 0.00 | 0.00 | 0.00 | 81 | 1011.8 |
| 20260504044523 | 35 | 344 | 0.0 | 0.0 | 0.00 | 0.00 | 0.00 | 81 | 1011.8 |
| 20260504043020 | 35 | 344 | 0.0 | 0.0 | 0.00 | 0.00 | 0.00 | 80 | 1011.8 |
| 20260504041520 | 35 | 344 | 0.0 | 0.0 | 0.00 | 0.00 | 0.00 | 80 | 1011.8 |
| 20260504040004 | 36 | 344 | 0.0 | 0.0 | 0.00 | 0.00 | 0.00 | 78 | 1011.7 |
| 20260504034509 | 36 | 344 | 0.0 | 0.0 | 0.00 | 0.00 | 0.00 | 78 | 1011.6 |
| 20260504033012 | 37 | 344 | 0.0 | 0.0 | 0.00 | 0.00 | 0.00 | 77 | 1011.5 |
| 20260504031516 | 37 | 344 | 0.0 | 0.0 | 0.00 | 0.00 | 0.00 | 77 | 1011.5 |
| 20260504030023 | 37 | 344 | 0.0 | 0.0 | 0.00 | 0.00 | 0.00 | 77 | 1011.4 |
| 20260504024510 | 37 | 344 | 0.0 | 0.0 | 0.00 | 0.00 | 0.00 | 76 | 1011.6 |
| 20260504023009 | 38 | 344 | 0.0 | 0.0 | 0.00 | 0.00 | 0.00 | 73 | 1011.6 |
| 20260504021522 | 39 | 344 | 0.0 | 0.0 | 0.00 | 0.00 | 0.00 | 73 | 1011.6 |
| 20260504020016 | 40 | 344 | 0.0 | 0.0 | 0.00 | 0.00 | 0.00 | 71 | 1011.6 |
| 20260504014522 | 40 | 344 | 0.0 | 0.0 | 0.00 | 0.00 | 0.00 | 69 | 1011.4 |
| 20260504013010 | 42 | 344 | 0.0 | 0.0 | 0.00 | 0.00 | 0.00 | 68 | 1011.1 |
| 20260504011509 | 43 | 344 | 0.0 | 0.0 | 0.00 | 0.00 | 0.00 | 65 | 1011.2 |
| 20260504010017 | 44 | 344 | 0.0 | 0.0 | 0.00 | 0.00 | 0.00 | 62 | 1011.0 |
| 20260504004524 | 45 | 344 | 0.0 | 0.0 | 0.00 | 0.00 | 0.00 | 59 | 1011.1 |
| 20260504003023 | 47 | 344 | 0.0 | 0.0 | 0.00 | 0.00 | 0.00 | 54 | 1010.9 |
| 20260504001509 | 49 | 344 | 0.0 | 0.0 | 0.00 | 0.00 | 0.00 | 54 | 1010.7 |
| 20260504000012 | 50 | 344 | 0.0 | 0.0 | 0.00 | 0.00 | 0.00 | 50 | 1010.6 |
| 20260503234518 | 51 | 344 | 0.0 | 2.0 | 0.00 | 0.00 | 0.00 | 47 | 1010.4 |
| 20260503233022 | 51 | 19 | 0.0 | 7.0 | 0.00 | 0.00 | 0.00 | 45 | 1010.3 |
| 20260503231522 | 52 | 352 | 0.0 | 2.0 | 0.00 | 0.00 | 0.00 | 42 | 1010.3 |
| 20260503230011 | 53 | 45 | 0.0 | 8.0 | 0.00 | 0.00 | 0.00 | 41 | 1010.2 |
| 20260503224514 | 53 | 140 | 1.0 | 3.0 | 0.00 | 0.00 | 0.00 | 39 | 1010.1 |
| 20260503223018 | 54 | 352 | 2.0 | 5.0 | 0.00 | 0.00 | 0.00 | 38 | 1010.0 |
| 20260503221530 | 54 | 273 | 1.0 | 2.0 | 0.00 | 0.00 | 0.00 | 37 | 1009.8 |
| 20260503220008 | 54 | 132 | 1.0 | 7.0 | 0.00 | 0.00 | 0.00 | 37 | 1009.8 |
| 20260503214514 | 54 | 298 | 2.0 | 4.0 | 0.00 | 0.00 | 0.00 | 35 | 1009.8 |
| 20260503213027 | 55 | 240 | 3.0 | 9.0 | 0.00 | 0.00 | 0.00 | 35 | 1009.5 |
| 20260503211523 | 55 | 132 | 3.0 | 8.0 | 0.00 | 0.00 | 0.00 | 33 | 1009.5 |
| 20260503210024 | 55 | 191 | 3.0 | 6.0 | 0.00 | 0.00 | 0.00 | 33 | 1009.6 |
| 20260503204514 | 56 | 352 | 2.0 | 8.0 | 0.00 | 0.00 | 0.00 | 31 | 1009.5 |
| 20260503203016 | 57 | 38 | 2.0 | 11.0 | 0.00 | 0.00 | 0.00 | 32 | 1009.6 |
| 20260503201528 | 58 | 78 | 4.0 | 9.0 | 0.00 | 0.00 | 0.00 | 30 | 1009.6 |
| 20260503200004 | 58 | 326 | 2.0 | 7.0 | 0.00 | 0.00 | 0.00 | 31 | 1009.8 |
| 20260503194508 | 57 | 236 | 3.0 | 10.0 | 0.00 | 0.00 | 0.00 | 31 | 1009.5 |
| 20260503193014 | 56 | 213 | 3.0 | 9.0 | 0.00 | 0.00 | 0.00 | 31 | 1010.1 |
| 20260503191521 | 57 | 17 | 3.0 | 10.0 | 0.00 | 0.00 | 0.00 | 30 | 1010.0 |
| 20260503190024 | 57 | 310 | 2.0 | 7.0 | 0.00 | 0.00 | 0.00 | 31 | 1010.1 |
| 20260503184507 | 54 | 253 | 0.0 | 10.0 | 0.00 | 0.00 | 0.00 | 33 | 1010.2 |
| 20260503183023 | 54 | 78 | 3.0 | 10.0 | 0.00 | 0.00 | 0.00 | 32 | 1010.4 |
| 20260503181527 | 56 | 40 | 2.0 | 10.0 | 0.00 | 0.00 | 0.00 | 32 | 1010.7 |
| 20260503180020 | 56 | 184 | 1.0 | 7.0 | 0.00 | 0.00 | 0.00 | 32 | 1010.7 |
| 20260503174524 | 55 | 126 | 2.0 | 5.0 | 0.00 | 0.00 | 0.00 | 36 | 1010.7 |
| 20260503173036 | 55 | 5 | 2.0 | 9.0 | 0.00 | 0.00 | 0.00 | 34 | 1011.0 |
| 20260503171513 | 52 | 55 | 2.0 | 8.0 | 0.00 | 0.00 | 0.00 | 36 | 1011.1 |